Regional Weather Roundup
Issued by NWS Sterling, VA

Home | Current Version | Previous Version | Graphics & Text | Print | Product List | Glossary On
Versions: 1 2 3 4 5 6 7 8 9 10 11 12 13 14 15 16 17 18 19 20 21 22 23 24 25 26 27 28 29 30 31 32 33 34 35 36 37 38 39 40 41 42 43 44 45 46 47 48 49 50
000
ASUS41 KLWX 211410
RWRLWX

REGIONAL WEATHER ROUNDUP
NATIONAL WEATHER SERVICE BALTIMORE MD/WASHINGTON DC
900 AM EST FRI NOV 21 2014

Note: "FAIR" indicates few or no clouds below 12,000 feet
with no significant weather and/or obstructions to visibility.
 TC=TEMPERATURE CELSIUS

 * =Non NWS site. Station does not report precipitation (e.g. rain,
    snow, etc.), thunder, or fog.

DCZ001-MDZ009-015-VAZ040>042-051-053>054-211500-
WASHINGTON METRO

CITY           SKY/WX    TMP DP  RH WIND       PRES   REMARKS
WASHINGTON NAT NOT AVBL
DULLES         SUNNY     29   8  41 NW16G23   30.42R WCI  17
ANDREWS AFB    MOSUNNY   32   8  36 NW14      30.41R WCI  22
FT BELVOIR     SUNNY     32   8  35 NW16      30.44R WCI  22
QUANTICO       MOSUNNY   33   7  33 N14G23    30.45R WCI  23
COLLEGE PARK*  SUNNY     32   9  37 NW12G25   30.43R WCI  23
LEESBURG*      SUNNY     32  14  47 NW13G20   30.42R WCI  22
MANASSAS*      SUNNY     32  10  40 NW17G26   30.43R WCI  21
GAITHERSBURG*  SUNNY     28   7  40 NW9G16    30.44R WCI  20

$$

MDZ006>007-011-014-211500-
BALTIMORE METRO

CITY           SKY/WX    TMP DP  RH WIND       PRES   REMARKS
BWI AIRPORT    MOSUNNY   31   7  36 W14G24    30.40R WCI  21
MD SCIENCE CTR   N/A     31   7  36 MISG      30.40R
MARTIN STATE   MOSUNNY   32  10  40 W20       30.42R WCI  20
ANNAPOLIS      SUNNY     32  12  43 NW10G21   30.42R WCI  24
FORT MEADE*    SUNNY     30  10  43 NW14G20   30.44R WCI  20

$$

MDZ012-015-019>023-211500-
MARYLAND EASTERN SHORE

CITY           SKY/WX    TMP DP  RH WIND       PRES   REMARKS
OCEAN CITY     SUNNY     34   9  35 NW13G31   30.37R WCI  25
SALISBURY      SUNNY     35  10  35 NW21G30   30.38R WCI  24
BAY BRIDGE AP*   N/A     32   9  37 NW21      30.41R WCI  20
CAMBRIDGE*     MOSUNNY   36  10  35 NW10G18   30.40R WCI  28
EASTON*        MOSUNNY   34  10  37 NW20G29   30.44R WCI  22

$$

MDZ017>025-211500-
SOUTHERN MARYLAND

CITY           SKY/WX    TMP DP  RH WIND       PRES   REMARKS
PATUXENT RIVER MOSUNNY   34  10  37 NW21      30.41R WCI  22
ST INIGOES     SUNNY     35   8  32 NW10G22   30.41R WCI  27
LEONARDTOWN*   SUNNY     32  10  40 NW5       30.43R

$$

MDZ003>005-211500-
NORTH CENTRAL MARYLAND

CITY           SKY/WX    TMP DP  RH WIND       PRES   REMARKS
FREDERICK*     MOSUNNY   34   3  27 NW13G23   30.44R WCI  25
HAGERSTOWN APT PTSUNNY   29   8  41 NW15      30.39R WCI  18
WESTMINSTER*   PTSUNNY   27   7  43 W13G24    30.36R WCI  16

$$

MDZ501>502-211500-
WESTERN MARYLAND

CITY           SKY/WX    TMP DP  RH WIND       PRES   REMARKS
OAKLAND*       MOSUNNY   14  12  92 W13G20    30.25R WCI   0
CUMBERLAND*    MOSUNNY   28   9  43 NW8G20    30.45R WCI  20

$$

VAZ025>031-211500-
SHENANDOAH VALLEY

CITY           SKY/WX    TMP DP  RH WIND       PRES   REMARKS
WINCHESTER*    MOSUNNY   30   3  31 NW18      30.39R WCI  18
FRONT ROYAL*   FAIR      30   9  40 NW6G20    30.40R
LURAY*         FAIR      32  10  40 NW16      30.39R WCI  21
NEW MARKET*    FAIR      29   7  39 N7        30.38R
STAUNTON*      SUNNY     30   6  36 NW8       30.39R WCI  22
WAYNESBORO*    FAIR      28  10  48 CALM      30.35R

$$

WVZ021-048>050-054>055-211500-
EASTERN WEST VIRGINIA PANHANDLE

CITY           SKY/WX    TMP DP  RH WIND       PRES   REMARKS
MARTINSBURG    SUNNY     28   5  37 NW16G22   30.41R WCI  16
PETERSBURG*    SUNNY     28   5  37 NW13      30.41R WCI  17

$$

VAZ036>039-050-211500-
CENTRAL FOOTHILLS

CITY           SKY/WX    TMP DP  RH WIND       PRES   REMARKS
CHARLOTTESVILL SUNNY     32   8  36 W5        30.40R
CULPEPER*      SUNNY     34  10  37 N7        30.43R
ORANGE*        SUNNY     34  12  40 CALM      30.42R
GORDONSVILLE*  FAIR      32   9  38 NW7       30.41R
WARRENTON*     FAIR      33  16  48 NW12      30.42R WCI  25

$$

VAZ055>057-211500-
NORTH AND CENTRAL PIEDMONT

CITY           SKY/WX    TMP DP  RH WIND       PRES   REMARKS
FREDERICKSBRG* SUNNY     35  12  39 NW8       30.42R WCI  28
STAFFORD*      SUNNY     32  11  41 CALM      30.47R

$$

NCZ024-NYZ072-PAZ021-071-VAZ022-071-211500-
OTHER REGIONAL OBSERVATIONS

CITY           SKY/WX    TMP DP  RH WIND       PRES   REMARKS
NEW YORK CITY  SUNNY     29   9  43 VRB6G20   30.28R
PHILADELPHIA   SUNNY     30   7  37 NW20G29   30.36R WCI  17
PITTSBURGH     MOSUNNY   19  13  77 W10       30.39R WCI   7
ROANOKE        SUNNY     30  10  43 NW8       30.41R WCI  22
RICHMOND       MOSUNNY   36  14  40 NW13      30.41R WCI  27
RALEIGH        MOSUNNY   38  18  44 VRB6      30.40R

$$

ANZ530>537-211500-
MARINE OBSERVATIONS

STATION/POSITION TIME  TEMP    WIND        PRES
                       AIR SEA DIR/SP/G
                 (UTC) (F)     (DEG/KT/KT) (MB)
THOMAS PT LIGHT  1400   31 47  310/ 18/ 22 1030.7R
BALT KEY BRIDGE  1400   31     290/ 11/ 15 1029.3R
COVE POINT       1400   32     330/ 12/ 18 1029.5R
LEWISETTA        1400   34 44  350/ 13/ 18 1029.5R
SOLOMONS ISLAND  1400      47                N/A
PINEY POINT      1400          350/ 21/ 24   N/A

$$




USA.gov is the U.S. government's official web portal to all federal, state and local government web resources and services.